GFSSGP_250_rhum_159.txt.gz
RH
32 62 100 100 100 100 38 26 29 27 23 15 19 34 50 91 100 88 82 80 73 72 86 95 94 52 40 35 34 31 28 40 41 86 52 86 91 76 100 87 98 100 95 67 34 33 41 54 46
47 58 100 100 98 95 23 31 33 28 16 22 15 22 26 57 79 100 100 94 75 100 100 87 77 58 51 66 55 56 42 68 67 66 63 87 86 91 78 100 94 90 100 52 40 60 90 56 44
31 55 96 90 100 89 35 28 34 25 16 24 19 16 26 26 33 60 100 90 78 91 99 78 82 83 50 56 75 59 51 99 100 100 100 100 72 58 100 79 93 100 86 67 97 100 99 71 41
9 88 96 96 100 91 100 38 32 32 17 21 19 15 17 30 34 50 81 100 78 57 72 100 92 100 92 75 83 91 61 100 100 100 100 73 74 50 89 88 100 85 88 100 100 95 90 49 52
25 85 100 100 100 100 83 76 31 25 18 20 13 13 14 21 27 35 80 95 77 95 68 80 53 99 93 100 96 100 92 80 100 95 85 53 96 91 97 82 100 82 100 100 100 100 87 74 53
53 100 100 100 100 98 100 94 36 24 20 20 14 14 12 11 24 29 64 85 99 100 98 100 93 92 72 100 100 82 98 95 94 98 91 50 74 93 87 100 76 99 100 90 84 96 72 54 50
32 61 100 100 81 92 91 59 38 29 20 20 18 12 14 12 20 24 53 73 100 99 100 87 100 99 49 100 100 99 88 92 100 94 93 70 76 100 99 99 79 100 92 98 87 98 93 80 45
100 38 47 100 100 100 37 54 41 34 24 21 18 16 14 13 20 23 31 62 98 100 100 100 100 83 45 44 51 99 100 96 92 90 87 54 55 100 100 61 70 74 80 86 87 66 100 60 20
30 23 11 26 68 73 74 78 38 39 33 23 20 20 17 20 16 20 30 30 73 99 100 100 100 98 59 58 42 80 89 92 71 75 62 75 95 80 54 98 94 36 64 99 64 49 27 19 23
32 25 17 64 100 98 90 98 46 30 32 31 26 23 21 17 22 15 19 35 28 56 81 99 100 72 82 61 56 37 36 45 68 65 58 92 80 66 82 42 42 98 75 64 68 52 42 74 52
36 32 19 100 100 98 100 96 64 40 30 36 42 28 26 23 15 22 23 30 28 30 41 56 80 91 100 100 90 94 72 66 60 62 67 100 61 97 97 45 100 40 97 100 82 61 52 63 65
96 34 66 100 100 95 93 100 78 39 40 44 59 41 32 31 21 20 18 21 31 43 31 31 33 59 76 78 69 61 60 61 78 53 78 70 48 35 100 77 61 96 100 100 98 44 64 93 87
92 46 74 100 63 92 98 77 70 79 51 58 46 81 54 40 33 20 23 23 34 48 44 54 75 95 64 60 52 63 79 93 88 71 92 60 42 91 54 24 59 94 91 32 33 78 95 88 51
100 55 79 100 100 100 100 100 66 92 62 68 39 99 68 59 40 27 26 30 28 46 42 100 82 83 54 66 94 87 90 100 89 66 65 71 61 49 37 78 93 88 65 34 40 47 64 53 49
100 66 17 75 92 68 81 62 76 100 65 55 65 75 70 90 69 44 38 45 49 39 65 100 96 81 99 100 100 86 100 83 99 100 98 96 89 95 81 99 55 86 52 30 58 96 90 85 38
100 42 19 23 79 44 90 100 100 100 90 50 72 51 58 99 85 55 59 31 62 37 56 100 95 100 100 92 100 99 96 100 100 86 76 70 58 92 98 75 100 92 43 52 64 100 89 96 93
100 96 38 27 77 77 86 100 100 100 61 54 60 47 56 96 99 72 75 36 25 74 57 86 100 100 63 99 100 100 100 92 69 66 58 42 41 39 52 74 56 41 29 99 60 100 95 70 100
100 76 82 44 92 82 100 98 82 100 80 70 58 66 61 62 99 71 80 97 92 32 71 57 69 94 89 81 90 72 85 97 81 54 41 35 29 22 34 95 48 27 30 37 43 42 38 82 100
100 74 67 88 99 98 74 88 55 41 48 43 39 48 91 76 86 90 95 97 80 80 35 53 50 60 59 68 67 44 52 51 63 50 32 27 22 22 22 86 28 23 22 15 20 28 46 100 100
100 98 81 100 93 91 100 77 80 42 37 40 47 51 87 77 85 100 100 100 84 64 59 59 25 41 40 45 53 39 30 35 38 40 35 30 26 18 56 41 23 20 19 18 17 28 81 84 65
100 100 85 98 100 100 100 100 100 96 63 69 47 43 62 74 82 96 100 99 100 100 98 39 46 34 46 47 44 36 43 38 39 40 39 25 20 35 76 32 26 22 18 21 18 28 75 67 36
100 100 73 90 84 84 100 100 100 92 93 84 47 33 49 68 52 60 100 100 91 99 100 30 23 31 41 43 68 73 67 53 42 57 34 18 26 69 39 29 36 31 24 25 24 22 67 75 49
29 99 61 97 100 91 45 72 100 91 100 88 45 54 59 61 36 100 99 100 100 100 100 20 20 38 42 41 48 63 59 35 79 99 19 21 92 54 28 38 42 38 40 25 25 20 25 46 24
10 74 100 92 98 100 100 99 98 100 66 57 95 71 57 79 55 97 100 100 100 100 53 23 21 41 46 59 32 31 34 38 100 48 18 65 62 44 26 41 40 46 37 33 25 33 21 28 26
10 10 39 38 73 80 100 100 100 100 100 83 63 64 73 76 83 84 92 100 100 100 47 19 30 48 65 43 32 32 41 26 30 54 67 53 35 25 33 36 42 45 41 38 27 26 21 18 19
13 11 10 9 9 8 66 100 89 100 100 85 94 99 81 66 99 100 90 97 100 100 100 45 39 63 62 25 36 27 38 37 82 66 48 35 28 27 27 26 29 70 48 51 25 23 21 19 19
12 13 11 10 9 9 9 66 100 100 100 95 90 85 90 98 65 62 100 91 92 100 98 100 32 48 55 21 23 77 71 69 69 44 39 31 52 50 30 42 53 61 42 50 24 20 21 25 31
31 14 14 13 11 9 10 11 42 100 100 100 96 70 55 33 45 47 83 100 100 99 92 55 54 58 51 35 14 55 100 74 50 48 32 40 64 50 93 78 78 46 56 38 36 26 20 27 35
35 37 16 15 14 12 9 12 11 36 99 100 100 86 42 30 33 20 79 99 100 100 81 100 100 91 29 12 11 33 76 82 48 39 32 42 40 85 100 100 97 59 42 34 56 40 34 33 31
72 46 39 17 15 14 11 12 10 11 12 32 49 95 69 75 45 45 34 80 94 100 84 100 100 100 100 60 28 20 70 54 41 24 23 29 43 93 98 100 100 97 57 25 32 40 35 40 38

GFSSGP_250_rhum_162.txt.gz
RH
49 81 100 96 100 83 96 41 30 29 32 21 18 13 18 50 66 100 100 100 83 67 72 64 52 50 50 34 34 35 55 40 28 26 29 43 50 68 72 90 50 76 100 73 45 68 86 83 71
30 83 100 80 100 68 100 95 70 26 28 19 15 11 15 26 68 82 100 100 84 72 77 63 64 55 51 44 35 29 32 27 26 29 40 42 48 71 88 86 56 98 78 49 53 100 100 100 96
54 100 88 60 76 96 100 94 74 29 24 18 14 11 14 18 36 75 100 93 86 83 79 91 81 72 80 57 42 38 34 35 46 38 33 65 93 100 76 46 55 100 77 60 100 94 94 99 100
85 84 90 100 100 100 96 99 76 50 27 19 15 14 14 12 26 36 90 100 96 83 100 100 72 89 73 65 51 57 57 63 50 69 100 100 99 91 72 48 100 99 74 52 85 99 88 76 90
36 92 100 94 100 100 90 66 76 63 26 21 17 15 13 12 17 30 38 99 88 74 100 99 84 70 59 86 77 85 76 71 76 72 100 100 92 92 95 58 99 87 31 54 93 93 53 86 100
41 90 85 100 100 100 100 86 66 32 22 23 19 16 15 14 13 26 33 48 97 72 88 100 99 85 77 100 99 87 73 88 94 100 100 100 92 78 86 94 88 58 41 54 94 63 97 50 69
28 100 100 100 100 100 85 92 46 27 28 32 20 20 18 14 15 25 29 44 70 100 80 78 83 98 51 100 99 74 74 60 66 91 100 93 95 96 100 83 74 51 52 100 83 95 94 18 18
99 100 100 100 96 60 59 91 67 36 29 31 25 21 22 12 15 21 28 38 77 98 100 68 70 73 98 97 100 100 100 100 88 92 92 100 98 80 87 81 43 90 100 56 100 98 84 23 31
96 100 97 100 100 93 100 100 91 55 39 31 31 22 26 16 17 14 26 42 82 100 100 88 98 71 97 100 91 76 74 95 100 100 99 100 91 83 79 73 45 41 23 100 100 100 84 44 37
53 100 81 40 62 86 100 100 100 90 53 36 38 27 28 23 15 17 19 32 71 96 97 100 100 100 100 89 64 56 41 70 99 90 87 82 81 81 68 61 36 29 100 90 100 86 60 51 74
24 100 54 22 74 78 100 89 100 72 44 56 49 32 38 23 17 18 18 26 35 50 87 100 79 100 100 80 70 53 43 46 47 48 69 58 79 72 54 43 88 76 82 100 63 68 80 70 78
26 100 68 26 52 86 60 54 71 72 79 61 48 29 44 39 25 18 24 19 29 35 48 63 87 96 87 76 67 94 74 66 59 48 63 39 61 65 36 100 49 100 90 34 57 76 60 56 50
45 86 75 81 74 77 80 67 86 75 100 76 39 30 49 44 35 32 26 23 25 50 49 42 43 59 80 100 100 100 83 71 90 85 65 48 69 43 36 48 99 79 53 44 51 60 67 97 98
100 100 92 78 100 100 100 100 69 90 100 87 39 33 57 88 51 51 30 38 32 49 52 98 69 88 99 70 60 47 46 69 84 70 62 75 55 36 44 52 78 92 63 74 97 81 74 88 92
96 100 90 60 100 100 100 100 92 100 100 91 54 34 52 81 68 76 56 49 51 45 48 99 100 99 82 70 98 76 90 100 100 100 61 36 94 98 99 76 99 100 56 95 100 99 100 100 93
100 92 99 64 100 98 100 100 89 92 100 95 55 44 53 63 57 70 91 93 52 76 48 100 93 100 68 54 92 88 64 69 85 87 60 94 71 72 55 52 100 100 45 89 100 95 83 100 91
100 95 97 86 58 75 100 100 100 100 93 64 69 59 46 56 64 73 97 94 82 42 58 82 81 100 65 100 63 100 100 63 87 94 75 70 66 46 42 47 88 65 58 91 72 90 78 83 59
85 88 84 70 34 25 80 90 100 100 81 58 63 53 46 93 71 77 64 84 67 50 42 71 92 85 96 78 100 88 97 94 98 88 64 55 42 38 29 43 50 48 70 54 76 96 96 71 66
72 75 86 92 40 28 60 100 100 100 100 84 46 39 35 58 59 88 68 80 97 100 85 60 51 52 93 81 73 87 73 70 96 72 50 46 35 30 41 40 42 29 30 38 90 100 100 68 52
100 68 47 56 54 71 38 80 99 99 90 59 29 30 38 64 77 90 81 90 80 100 100 100 96 61 54 70 86 65 65 51 36 48 48 35 33 34 42 66 26 26 21 52 72 67 46 67 69
99 78 71 61 100 100 58 63 92 70 58 40 30 52 57 53 51 71 97 100 100 100 100 100 100 43 48 50 61 51 46 45 37 39 46 40 38 28 56 64 28 26 21 37 61 75 48 54 73
76 79 73 34 100 100 83 86 68 40 49 48 80 41 42 36 53 55 99 68 69 100 100 100 86 41 54 56 48 46 46 39 48 60 49 39 25 46 81 30 30 22 16 33 52 54 51 41 66
12 100 72 36 82 91 100 100 75 62 91 90 76 53 52 39 55 62 100 76 66 94 100 65 19 41 40 50 42 35 46 60 54 71 44 25 35 70 51 35 35 26 16 24 37 48 92 40 51
11 77 100 55 100 98 100 94 100 66 79 63 42 70 40 35 60 77 100 84 93 99 71 20 20 30 40 36 39 41 48 50 40 62 24 26 64 66 36 28 26 28 16 13 25 41 44 45 42
11 11 93 100 92 100 75 84 100 97 97 90 48 46 25 52 68 94 88 100 100 100 100 45 38 46 63 58 45 34 26 23 51 77 30 70 75 36 29 32 30 29 14 17 34 42 28 37 46
11 11 10 37 98 97 98 60 93 100 57 72 58 63 23 59 43 97 100 84 91 100 100 100 84 78 52 38 25 29 25 28 70 25 58 87 59 36 32 35 30 29 18 18 37 34 25 23 26
24 15 11 10 37 100 81 93 100 100 86 92 100 96 35 59 32 50 72 94 100 100 100 100 100 97 45 30 33 24 45 73 63 30 91 74 47 29 36 38 36 48 30 33 23 37 20 16 16
49 51 26 12 9 24 63 68 42 86 100 100 88 98 67 55 55 66 90 60 100 100 100 98 100 88 95 57 20 25 31 51 52 51 45 40 52 30 34 37 39 75 58 48 27 24 20 24 18
66 98 87 29 13 11 10 11 10 13 28 100 100 88 93 86 70 72 80 39 66 100 98 100 100 100 100 91 41 40 56 55 45 33 26 42 39 39 26 53 75 70 55 53 39 27 20 25 29
60 64 91 93 31 12 12 11 10 9 10 31 100 100 100 74 55 44 50 24 28 71 78 100 100 100 100 100 66 48 73 46 33 40 31 49 50 86 76 68 84 96 82 75 41 34 27 24 25

GFSSGP_250_rhum_165.txt.gz
RH
58 100 71 62 94 97 77 85 93 56 34 27 19 14 14 17 55 75 98 100 100 99 79 68 83 78 87 65 44 47 96 100 98 75 46 26 24 32 49 76 58 80 59 46 44 43 82 57 94
33 100 100 78 100 100 71 77 71 72 70 29 19 16 15 14 19 57 100 100 95 100 94 78 100 75 62 63 47 41 47 60 78 48 26 28 38 36 50 94 81 55 39 49 56 33 28 78 100
34 100 89 100 100 100 98 71 56 58 74 28 22 20 15 14 13 29 79 100 100 100 91 73 81 99 54 50 52 42 42 50 47 37 27 28 34 52 96 80 64 61 82 56 36 22 33 100 58
49 83 97 100 79 99 80 92 72 60 41 28 27 23 16 13 12 19 53 94 100 100 97 76 87 69 60 51 48 46 42 37 37 43 42 44 83 100 100 88 77 54 57 55 24 37 93 87 85
27 65 46 47 76 83 82 100 75 42 29 26 26 24 17 11 13 14 28 73 86 98 96 67 100 53 60 68 66 56 54 63 62 64 52 80 100 99 78 93 100 88 68 58 78 76 100 37 60
56 94 100 83 100 97 100 76 56 60 36 31 23 25 19 12 14 16 26 37 98 82 100 69 100 100 88 76 89 89 80 84 74 73 81 100 100 100 100 100 86 92 50 75 58 99 78 100 40
44 59 90 71 100 99 82 61 59 75 47 40 21 25 18 13 14 18 24 31 60 89 87 79 100 100 100 66 75 68 70 69 86 90 100 100 100 100 89 88 93 95 55 42 57 95 97 50 38
31 50 70 100 100 90 50 71 66 89 76 76 27 26 18 14 13 14 21 29 35 83 78 99 99 100 100 100 64 100 100 100 79 58 65 90 88 74 90 100 100 73 49 48 100 100 92 55 48
54 80 100 100 100 89 96 80 70 97 71 42 29 28 21 18 14 15 20 25 35 63 86 95 99 94 76 99 82 100 99 100 96 78 97 90 75 91 89 84 81 63 77 100 100 87 68 64 52
58 100 100 100 100 100 97 42 41 86 66 54 41 29 22 24 18 17 20 27 35 63 79 100 91 86 83 84 95 98 97 58 64 100 100 100 99 84 97 82 61 91 100 65 66 76 64 83 100
37 100 100 97 100 89 70 31 52 85 98 70 60 28 29 36 23 19 19 32 45 67 97 100 57 68 67 75 76 83 56 56 46 94 71 75 66 69 87 57 85 100 68 51 72 98 96 98 83
41 89 100 78 100 66 56 60 66 58 94 64 69 30 27 44 51 30 24 22 38 43 96 100 100 96 100 62 98 82 57 53 51 49 41 57 64 50 75 51 50 94 66 71 74 63 91 97 100
11 53 100 88 100 58 90 76 72 80 90 74 59 28 30 36 50 72 39 33 26 37 43 78 86 99 88 64 71 63 45 65 66 82 66 71 54 60 56 44 84 94 97 61 47 66 100 100 100
10 24 88 98 86 92 100 73 89 73 100 62 51 35 42 48 48 78 73 55 47 42 45 45 60 68 93 87 93 80 99 100 77 51 74 80 43 58 52 57 96 94 99 91 63 55 100 100 92
15 24 87 91 100 83 100 100 86 96 98 68 52 38 50 50 54 72 97 98 57 46 55 100 70 81 100 92 78 79 100 89 52 40 58 62 65 98 94 86 100 100 93 69 77 60 86 100 88
42 32 97 72 90 100 100 100 97 100 80 86 61 75 45 68 63 78 82 100 79 50 42 98 100 100 91 86 57 63 100 90 100 99 84 100 100 73 69 85 100 100 70 84 74 85 93 100 86
72 65 86 98 100 100 100 100 89 100 83 100 74 72 61 54 84 70 89 98 93 48 55 100 81 97 76 59 100 83 64 88 100 96 58 72 65 52 94 80 91 68 100 62 57 70 85 57 79
97 99 100 92 88 100 100 100 99 92 98 73 76 64 62 38 68 68 68 76 85 95 50 82 100 100 70 100 68 81 100 100 61 53 80 40 52 52 89 66 65 73 79 62 40 33 52 46 81
91 59 68 95 91 86 100 100 98 100 98 100 54 89 51 36 46 64 91 90 74 100 100 97 98 98 91 78 88 100 71 76 55 65 80 59 48 45 75 90 73 50 100 92 37 23 44 56 58
100 54 53 64 65 84 90 75 63 90 82 94 94 56 39 34 30 59 66 78 68 84 59 72 99 100 98 78 96 87 79 85 71 72 48 40 31 40 74 95 47 32 98 100 94 35 48 57 58
33 99 63 61 51 64 76 39 38 76 95 100 81 43 47 58 36 43 60 41 40 63 93 84 100 100 76 69 71 80 71 67 68 54 39 32 31 37 81 87 40 26 99 90 77 79 80 55 49
10 47 94 71 50 51 87 45 36 32 56 78 79 41 33 36 44 39 66 55 39 69 96 99 100 96 51 79 83 78 67 75 52 40 36 26 38 43 58 82 41 37 55 64 66 82 83 63 78
10 11 91 85 100 98 94 48 50 59 50 53 54 32 52 47 58 42 74 72 31 90 93 40 23 22 51 90 62 83 58 47 44 32 36 36 38 32 91 66 32 24 52 72 57 70 67 76 92
11 11 35 76 79 69 95 68 42 48 48 68 57 29 70 76 73 39 66 81 86 51 96 100 40 23 23 41 52 58 55 51 36 37 45 37 28 91 62 37 25 19 41 68 63 70 60 77 76
11 10 12 31 72 61 81 100 67 55 59 52 28 54 57 52 35 41 52 85 69 93 82 100 96 60 48 42 64 90 86 76 56 60 40 33 40 78 36 24 20 17 25 45 60 82 50 52 57
17 14 11 12 56 70 61 74 57 99 71 35 33 47 53 39 29 52 48 74 88 88 66 100 100 94 92 71 37 36 46 47 50 64 29 26 85 60 33 23 26 16 18 26 43 72 66 71 79
55 27 16 11 24 100 97 96 61 99 100 100 67 65 45 26 30 55 47 71 67 50 59 100 100 100 77 30 34 36 55 34 65 37 20 49 75 45 60 29 25 25 15 16 39 43 60 63 51
72 70 42 20 13 17 60 100 95 100 77 100 88 55 30 33 34 55 43 55 57 60 76 96 100 100 99 88 27 33 51 50 96 31 42 49 44 62 41 42 30 37 32 32 48 37 32 31 34
56 73 80 45 39 15 13 20 71 71 96 100 100 100 62 67 46 47 37 32 38 47 40 91 86 95 100 100 32 33 47 91 64 24 70 49 44 50 42 39 36 56 51 30 51 43 36 30 28
62 52 82 85 52 46 22 17 12 19 54 93 100 100 98 67 62 55 46 47 29 22 44 72 80 100 100 100 85 40 46 55 40 63 78 52 47 32 39 36 42 72 69 61 30 33 30 22 24

GFSSGP_250_rhum_168.txt.gz
RH
79 94 58 52 77 71 100 51 44 66 46 43 22 24 23 18 15 23 53 100 100 100 100 88 100 100 100 100 100 69 64 86 100 100 85 83 52 28 29 41 60 65 63 51 28 44 36 24 34
31 100 91 59 74 100 76 49 55 65 40 24 24 25 21 18 14 21 77 100 100 100 100 88 86 100 100 100 100 83 53 60 93 97 99 70 38 25 26 58 84 82 59 35 48 66 52 46 73
11 81 71 61 77 71 62 67 84 45 40 26 28 25 21 18 14 15 62 98 99 100 98 91 73 79 100 100 90 81 58 56 62 66 66 55 40 33 53 65 100 84 60 54 78 95 56 68 100
10 63 84 86 83 64 37 80 58 51 51 37 36 27 19 17 13 13 18 65 100 100 100 91 74 70 100 97 76 62 70 86 59 49 43 60 45 43 58 74 100 100 96 100 76 58 64 81 94
11 35 50 40 88 70 51 100 66 60 49 48 68 40 20 14 12 13 16 33 90 100 92 90 92 71 75 80 99 94 65 60 49 61 91 77 61 59 82 100 94 91 100 100 78 55 58 89 89
12 50 59 43 67 84 99 100 62 48 50 73 51 30 20 14 11 13 17 28 83 100 86 92 92 100 100 86 88 84 60 58 54 52 62 87 97 96 80 91 80 93 100 92 69 81 95 100 67
12 45 95 52 68 93 100 94 60 53 52 55 47 26 20 16 12 13 18 29 52 91 95 64 92 76 100 98 96 74 64 74 68 95 92 99 96 79 84 84 100 100 92 73 88 100 91 68 65
12 59 100 86 63 56 87 100 94 64 57 54 53 29 24 19 12 13 15 25 35 70 98 56 100 100 100 96 86 86 100 100 100 97 65 57 69 66 86 100 94 75 75 100 100 90 64 54 86
11 26 98 100 100 90 94 100 70 66 44 45 53 39 26 21 15 13 14 22 33 62 81 66 77 100 100 83 100 100 99 100 77 100 72 73 37 62 99 98 73 80 98 95 61 63 65 84 73
10 21 95 89 98 100 100 100 66 70 50 63 55 35 25 28 23 14 13 24 30 43 80 89 74 74 90 99 100 100 94 88 100 72 46 44 64 98 95 58 64 92 100 72 57 80 93 88 83
9 40 100 100 87 100 95 87 91 46 72 42 64 32 30 44 41 22 17 22 33 35 46 89 92 99 98 100 84 99 100 99 87 49 62 67 72 63 60 75 64 93 100 51 60 69 100 100 98
9 47 100 100 81 100 81 70 39 68 73 35 64 30 31 41 45 59 26 24 36 48 68 75 87 91 95 85 70 86 100 78 43 40 47 47 63 71 62 74 54 100 100 60 60 68 99 82 77
8 19 95 98 100 100 91 60 59 70 56 52 69 34 31 37 42 79 85 38 30 42 58 89 99 88 68 60 74 75 66 61 36 54 66 57 59 79 69 64 72 100 100 83 64 44 73 72 87
6 8 33 100 100 100 79 56 76 56 42 92 69 37 35 43 38 69 100 87 52 46 46 65 89 90 100 72 52 47 50 46 44 61 45 48 56 82 77 73 97 100 100 86 67 77 78 96 95
6 7 11 52 100 99 97 71 90 44 100 91 78 51 46 60 40 50 82 100 61 54 55 58 57 87 100 100 89 63 52 63 68 60 75 46 57 90 77 93 100 100 100 88 90 67 81 94 100
9 7 9 66 75 98 100 98 80 96 100 83 74 72 59 43 45 39 64 91 100 59 63 80 42 71 83 80 88 80 99 90 65 50 41 40 83 82 76 82 100 100 92 82 66 76 100 88 99
20 31 12 67 82 100 96 78 77 75 100 79 77 62 62 62 39 44 69 52 95 75 57 87 60 87 80 69 61 86 100 80 100 66 100 100 73 65 50 91 100 100 96 61 52 46 88 96 89
98 96 46 44 69 100 99 100 81 75 100 83 60 59 59 59 38 39 73 58 44 99 92 100 66 78 82 53 69 96 100 91 100 76 75 73 51 47 46 68 99 84 63 30 39 50 59 62 58
93 65 73 72 94 98 100 100 90 95 91 100 74 48 64 51 30 48 50 99 78 58 54 100 100 92 72 80 65 74 82 71 100 53 72 58 52 36 45 62 77 79 34 28 26 46 45 46 49
91 60 77 70 71 70 83 93 98 100 87 63 71 52 73 64 36 40 41 65 69 61 71 71 96 100 91 89 100 100 100 48 51 67 64 57 35 26 27 60 67 75 40 34 38 44 41 34 34
42 80 52 52 58 54 66 66 72 100 98 83 74 66 68 59 50 57 41 58 71 68 65 79 94 100 100 97 96 100 100 100 94 70 52 39 35 28 25 50 57 82 60 33 43 41 45 50 61
10 75 100 46 44 47 44 46 55 80 85 78 63 52 56 64 44 44 49 50 71 31 43 97 32 80 75 100 87 100 97 88 81 72 62 43 30 26 28 59 40 80 79 47 41 39 44 49 71
12 11 20 88 90 66 61 48 48 59 48 38 51 54 71 76 54 52 40 52 57 31 34 71 51 28 25 54 89 94 84 68 67 74 56 45 25 25 34 61 33 77 74 57 53 45 45 54 75
14 12 11 12 76 100 97 66 40 46 66 64 44 33 46 58 39 68 47 44 69 53 40 47 100 42 34 55 70 79 60 63 60 51 37 28 37 28 33 47 37 66 64 64 79 46 54 66 75
22 13 13 10 12 81 100 100 59 34 54 54 53 46 43 58 47 58 39 38 71 85 68 47 87 98 67 54 78 83 67 55 56 55 46 36 38 26 58 47 29 43 63 52 46 52 72 66 68
67 42 17 13 11 12 75 100 100 62 51 37 27 28 30 28 32 52 37 55 65 74 60 35 70 100 63 94 95 86 72 51 46 61 72 68 36 28 69 44 22 37 65 44 48 63 71 70 62
94 84 73 37 15 13 17 53 88 89 90 70 47 34 25 28 42 47 39 56 80 64 68 72 63 97 92 54 58 41 38 36 39 52 67 74 30 88 52 51 25 20 54 52 49 50 52 58 77
61 72 88 84 70 22 15 24 18 72 66 72 48 48 30 29 38 50 27 48 70 51 52 72 90 98 100 100 85 39 34 35 34 48 74 35 80 54 38 59 37 20 27 40 48 58 45 63 74
56 62 64 89 99 76 42 16 28 62 76 65 82 52 59 64 79 76 25 43 68 48 41 48 68 100 99 100 96 35 51 27 44 63 27 42 66 45 59 59 33 28 17 33 34 56 77 70 57
50 45 49 56 94 100 92 86 35 22 86 98 100 100 100 100 100 78 48 42 49 73 33 47 25 58 96 99 99 36 52 32 85 39 23 70 52 62 38 50 40 33 29 30 52 56 36 43 60